This is the latest recevied weather packets stored in our database for station/object KK6LVQ-13. If no packets are shown the sender has not sent any weather packets the latest 10 day(s).
| Time | Temp. | Humidity | Pressure | Rain* | Wind** | Luminosity | Snow |
|---|---|---|---|---|---|---|---|
| 1777821069 | 11.11° C | 89% | 1018 hPa | 0 mm | - | 46 W/m² | - |
| 1777820766 | 11.67° C | 90% | 1018.2 hPa | 0 mm | - | 43 W/m² | - |
| 1777820462 | 11.67° C | 90% | 1018 hPa | 0 mm | - | 68 W/m² | - |
| 1777820160 | 11.67° C | 91% | 1018.2 hPa | 0 mm | - | 84 W/m² | - |
| 1777819857 | 11.11° C | 91% | 1018 hPa | 0 mm | - | 74 W/m² | - |
| 1777819554 | 11.11° C | 92% | 1018.2 hPa | 0 mm | - | 75 W/m² | - |
| 1777819252 | 11.11° C | 93% | 1017.8 hPa | 0 mm | - | 68 W/m² | - |
| 1777818948 | 11.11° C | 94% | 1017.8 hPa | 0 mm | - | 65 W/m² | - |
| 1777818644 | 11.11° C | 94% | 1017.8 hPa | 0 mm | - | 60 W/m² | - |
| 1777818342 | 10.56° C | 94% | 1017.8 hPa | 0 mm | - | 49 W/m² | - |
| 1777818038 | 10.56° C | 95% | 1017.3 hPa | 0 mm | - | 39 W/m² | - |
| 1777817735 | 10.56° C | 95% | 1017.4 hPa | 0 mm | - | 37 W/m² | - |
| 1777817433 | 10.56° C | 95% | 1017.4 hPa | 0 mm | - | 36 W/m² | - |
| 1777817129 | 10.56° C | 95% | 1017.3 hPa | 0 mm | - | 24 W/m² | - |
| 1777816826 | 10.56° C | 95% | 1017.3 hPa | 0 mm | - | 18 W/m² | - |
| 1777816524 | 10.56° C | 95% | 1017.3 hPa | 0 mm | - | 12 W/m² | - |
| 1777816220 | 10.56° C | 95% | 1017.2 hPa | 0 mm | - | 10 W/m² | - |
| 1777815918 | 10.56° C | 95% | 1017 hPa | 0 mm | - | 9 W/m² | - |
| 1777815615 | 10.56° C | 95% | 1017.1 hPa | 0 mm | - | 8 W/m² | - |
| 1777815313 | 10.56° C | 95% | 1017 hPa | 0 mm | - | 7 W/m² | - |
| 1777815009 | 10.56° C | 95% | 1017.2 hPa | 0 mm | - | 6 W/m² | - |
| 1777814706 | 10.56° C | 95% | 1017.1 hPa | 0 mm | - | 5 W/m² | - |
| 1777814402 | 10.56° C | 95% | 1017 hPa | 0 mm | - | 3 W/m² | - |
| 1777814099 | 10.56° C | 95% | 1016.8 hPa | 0 mm | - | 2 W/m² | - |
| 1777813796 | 10.56° C | 95% | 1016.8 hPa | 0 mm | - | 1 W/m² | - |
* Rain latest hour (hover to see other rain measurements)
** Current wind speed in m/s (hover to see current wind gust speed)